M I D A S
Marine Information and Data Acquisition System
Tripno 1406 of the Zeeleeuw from 2007-09-11 08:00:00 to 2007-09-11 17:00:00
Back to CruiseResearch ActivitiesStationsMapUnderway DataData graphs

EquipmentUnitsComments
TimeDGPSUTC
LatitudeDGPSDM.mWGS84
LongitudeDGPSDM.mWGS84
SpeedMeteo Stationm/sRelative wind speed
DirectionMeteo StationdegRelative wind direction
TemperatureMeteo Stationdeg CelciusAir temperature
PressureMeteo StationPaAtmospheric pressure
HumidityMeteo Station%Relative humidity
Missing or incorrect values are displayed as -999
Metereological data collected by the RV Zeeleeuw from 2007-09-11 08:00:00 to 2007-09-11 17:00:00
                                                                                    Next 1000 lines
Time Latitude Longitude Speed Direction Temperature Pressure Humidity
2007-09-11 08:00:10 51°15.052 2°52.957 13.2 351 14.8 102260 84
2007-09-11 08:00:15 51°15.058 2°52.932 13.5 355 14.8 102230 84
2007-09-11 08:00:20 51°15.063 2°52.906 13.4 350 14.8 102230 84
2007-09-11 08:00:25 51°15.069 2°52.879 14.8 277 14.8 102220 84
2007-09-11 08:00:30 51°15.075 2°52.854 15.1 353 14.8 102220 84
2007-09-11 08:00:35 51°15.081 2°52.828 12.3 352 14.8 102230 84
2007-09-11 08:00:40 51°15.086 2°52.801 13.4 350 14.8 102230 84
2007-09-11 08:00:45 51°15.092 2°52.775 14.4 352 14.9 102230 84
2007-09-11 08:00:50 51°15.097 2°52.749 14.2 351 14.9 102230 84
2007-09-11 08:00:55 51°15.104 2°52.723 14 278 14.9 102230 84
2007-09-11 08:01:00 51°15.11 2°52.697 13.6 351 14.9 102230 84
2007-09-11 08:01:05 51°15.117 2°52.67 13.3 279 14.9 102240 84
2007-09-11 08:01:10 51°15.122 2°52.643 14 353 14.9 102240 84
2007-09-11 08:01:15 51°15.128 2°52.617 11.9 351 14.9 102230 83
2007-09-11 08:01:20 51°15.134 2°52.59 14 353 14.9 102230 83
2007-09-11 08:01:25 51°15.14 2°52.564 13.1 351 14.9 102240 83
2007-09-11 08:01:30 51°15.146 2°52.537 11.8 349 14.9 102240 83
2007-09-11 08:01:35 51°15.152 2°52.511 13.7 353 14.9 102240 82
2007-09-11 08:01:40 51°15.159 2°52.484 13.7 352 14.9 102240 82
2007-09-11 08:01:45 51°15.165 2°52.458 14 278 14.9 102230 83
2007-09-11 08:01:50 51°15.171 2°52.431 14.7 351 14.9 102230 83
2007-09-11 08:01:55 51°15.177 2°52.405 14 353 14.9 102240 83
2007-09-11 08:02:00 51°15.182 2°52.377 13.9 353 14.9 102240 83
2007-09-11 08:02:05 51°15.187 2°52.35 14.4 352 15 102240 83
2007-09-11 08:02:10 51°15.193 2°52.323 13.1 351 15 102240 83
2007-09-11 08:02:15 51°15.199 2°52.296 14 354 15 102240 83
2007-09-11 08:02:20 51°15.204 2°52.27 13.1 354 15 102240 83
2007-09-11 08:02:25 51°15.209 2°52.242 14.4 353 14.9 102240 82
2007-09-11 08:02:30 51°15.214 2°52.215 13.5 352 14.9 102240 82
2007-09-11 08:02:35 51°15.219 2°52.187 13.3 351 14.9 102220 82
2007-09-11 08:02:40 51°15.223 2°52.159 12.8 350 14.9 102220 82
2007-09-11 08:02:45 51°15.228 2°52.131 13.3 279 15 102220 82
2007-09-11 08:02:50 51°15.233 2°52.103 14.1 348 15 102220 82
2007-09-11 08:02:55 51°15.237 2°52.074 13.4 351 15 102220 82
2007-09-11 08:03:00 51°15.243 2°52.046 13.6 348 15 102220 82
2007-09-11 08:03:05 51°15.247 2°52.017 13 348 15 102240 83
2007-09-11 08:03:10 51°15.251 2°51.989 13.7 350 15 102240 83
2007-09-11 08:03:15 51°15.256 2°51.961 13.7 353 15.1 102240 83
2007-09-11 08:03:20 51°15.26 2°51.933 14.2 352 15.1 102240 83
2007-09-11 08:03:25 51°15.264 2°51.906 15 353 15.1 102230 83
2007-09-11 08:03:30 51°15.268 2°51.878 14.5 353 15.1 102230 83
2007-09-11 08:03:35 51°15.273 2°51.85 13.4 351 15.1 102250 83
2007-09-11 08:03:40 51°15.277 2°51.823 13.7 354 15.1 102250 83
2007-09-11 08:03:45 51°15.281 2°51.795 13.9 352 15.1 102230 83
2007-09-11 08:03:50 51°15.286 2°51.767 15.4 352 15.1 102230 83
2007-09-11 08:03:55 51°15.291 2°51.74 15.6 353 15.1 102220 82
2007-09-11 08:04:00 51°15.296 2°51.713 14.1 353 15.1 102220 82
2007-09-11 08:04:05 51°15.3 2°51.685 14.3 352 15.1 102220 81
2007-09-11 08:04:10 51°15.305 2°51.657 14.4 352 15.1 102220 81
2007-09-11 08:04:15 51°15.31 2°51.63 14.2 354 15.1 102240 82
2007-09-11 08:04:20 51°15.315 2°51.602 14.2 354 15.1 102240 82
2007-09-11 08:04:25 51°15.32 2°51.574 13 352 15.1 102240 80
2007-09-11 08:04:30 51°15.324 2°51.546 14.3 354 15.1 102240 80
2007-09-11 08:04:35 51°15.329 2°51.519 13.4 352 15 102240 79
2007-09-11 08:04:40 51°15.334 2°51.492 13.1 352 15 102240 79
2007-09-11 08:04:45 51°15.339 2°51.464 14.6 352 15 102230 79
2007-09-11 08:04:50 51°15.344 2°51.436 15.8 352 15 102230 79
2007-09-11 08:04:55 51°15.349 2°51.408 14.1 352 15.1 102240 80
2007-09-11 08:05:00 51°15.353 2°51.38 14.2 353 15.1 102240 80
2007-09-11 08:05:05 51°15.358 2°51.353 13 281 15.1 102240 80
2007-09-11 08:05:10 51°15.362 2°51.325 13.8 348 15.1 102240 80
2007-09-11 08:05:15 51°15.367 2°51.298 14.2 352 15.1 102250 80
2007-09-11 08:05:20 51°15.371 2°51.27 13.2 347 15.1 102250 80
2007-09-11 08:05:25 51°15.375 2°51.242 16.1 350 15.2 102240 80
2007-09-11 08:05:30 51°15.38 2°51.215 13.3 351 15.2 102240 80
2007-09-11 08:05:36 51°15.385 2°51.181 14.5 351 15.2 102250 81
2007-09-11 08:05:40 51°15.389 2°51.159 13.8 352 15.2 102250 81
2007-09-11 08:05:45 51°15.393 2°51.131 13 351 15.2 102230 81
2007-09-11 08:05:50 51°15.398 2°51.104 13 352 15.2 102230 81
2007-09-11 08:05:55 51°15.403 2°51.076 13.8 346 15.2 102230 80
2007-09-11 08:06:00 51°15.407 2°51.048 12.6 347 15.2 102230 80
2007-09-11 08:06:05 51°15.413 2°51.022 13.5 350 15.2 102240 80
2007-09-11 08:06:10 51°15.417 2°50.994 13.4 351 15.2 102240 80
2007-09-11 08:06:15 51°15.423 2°50.967 13.3 350 15.2 102240 80
2007-09-11 08:06:20 51°15.427 2°50.938 13.4 351 15.2 102240 80
2007-09-11 08:06:25 51°15.433 2°50.911 13 282 15.2 102250 80
2007-09-11 08:06:30 51°15.438 2°50.884 13.8 345 15.2 102250 80
2007-09-11 08:06:35 51°15.443 2°50.857 15.9 281 15.2 102250 81
2007-09-11 08:06:40 51°15.448 2°50.831 15.7 344 15.2 102250 81
2007-09-11 08:06:45 51°15.453 2°50.804 15.9 283 15.2 102240 81
2007-09-11 08:06:50 51°15.46 2°50.778 15 347 15.2 102240 81
2007-09-11 08:06:55 51°15.465 2°50.752 15.5 281 15.2 102250 81
2007-09-11 08:07:00 51°15.471 2°50.726 14.3 346 15.2 102250 81
2007-09-11 08:07:05 51°15.477 2°50.7 14.8 280 15.2 102220 80
2007-09-11 08:07:10 51°15.484 2°50.674 13 345 15.2 102220 80
2007-09-11 08:07:15 51°15.49 2°50.649 16.2 285 15.2 102230 79
2007-09-11 08:07:20 51°15.497 2°50.623 16.6 345 15.2 102230 79
2007-09-11 08:07:25 51°15.504 2°50.598 15.2 282 15.2 102220 79
2007-09-11 08:07:30 51°15.511 2°50.573 16.9 348 15.2 102220 79
2007-09-11 08:07:35 51°15.519 2°50.547 16.8 347 15.2 102240 80
2007-09-11 08:07:40 51°15.525 2°50.521 16.7 348 15.2 102240 80
2007-09-11 08:07:45 51°15.531 2°50.498 17.6 281 15.2 102240 80
2007-09-11 08:07:52 51°15.54 2°50.465 16 346 15.2 102240 80
2007-09-11 08:07:56 51°15.545 2°50.445 14.9 282 15.2 102230 80
2007-09-11 08:08:01 51°15.552 2°50.421 15.3 347 15.2 102230 80
2007-09-11 08:08:06 51°15.559 2°50.396 16.7 283 15.2 102240 80
2007-09-11 08:08:11 51°15.565 2°50.371 16.8 345 15.2 102240 80
2007-09-11 08:08:16 51°15.572 2°50.346 14.8 280 15.2 102200 80
2007-09-11 08:08:21 51°15.579 2°50.322 15.7 344 15.2 102200 80
2007-09-11 08:08:25 51°15.584 2°50.302 18.4 280 15.3 102230 82
2007-09-11 08:08:31 51°15.592 2°50.273 17.2 346 15.3 102230 82
2007-09-11 08:08:36 51°15.599 2°50.249 15 343 15.2 102240 81
2007-09-11 08:08:40 51°15.605 2°50.23 15.1 342 15.2 102240 81
2007-09-11 08:08:45 51°15.613 2°50.206 15.2 279 15.2 102230 81
2007-09-11 08:08:50 51°15.621 2°50.183 15.8 342 15.2 102230 81
2007-09-11 08:08:55 51°15.63 2°50.16 18.1 281 15.2 102220 81
2007-09-11 08:09:00 51°15.638 2°50.138 17.7 342 15.2 102220 81
2007-09-11 08:09:05 51°15.647 2°50.116 16.4 281 15.2 102210 82
2007-09-11 08:09:10 51°15.655 2°50.091 16.1 344 15.2 102210 82
2007-09-11 08:09:15 51°15.664 2°50.07 17.9 280 15.2 102250 82
2007-09-11 08:09:20 51°15.672 2°50.048 16.5 343 15.2 102250 82
2007-09-11 08:09:26 51°15.681 2°50.024 16.9 282 15.2 102230 82
2007-09-11 08:09:31 51°15.69 2°50.003 17.3 343 15.2 102230 82
2007-09-11 08:09:36 51°15.698 2°49.982 19 345 15.1 102240 81
2007-09-11 08:09:41 51°15.706 2°49.959 18 342 15.1 102240 81
2007-09-11 08:09:46 51°15.715 2°49.938 15.5 284 15.1 102240 82
2007-09-11 08:09:51 51°15.723 2°49.917 16.5 344 15.1 102240 82
2007-09-11 08:09:56 51°15.732 2°49.896 18.1 282 15.1 102230 82
2007-09-11 08:10:00 51°15.739 2°49.879 17.7 345 15.1 102230 82
2007-09-11 08:10:05 51°15.747 2°49.858 15.4 284 15.1 102220 82
2007-09-11 08:10:10 51°15.756 2°49.837 16.4 344 15.1 102220 82
2007-09-11 08:10:15 51°15.765 2°49.815 16.4 280 15 102260 82
2007-09-11 08:10:20 51°15.774 2°49.794 16.5 346 15 102260 82
2007-09-11 08:10:25 51°15.782 2°49.772 16.4 279 15 102240 82
2007-09-11 08:10:30 51°15.791 2°49.751 16.7 345 15 102240 82
2007-09-11 08:10:35 51°15.801 2°49.729 17.1 345 15 102250 82
2007-09-11 08:10:40 51°15.81 2°49.707 18.1 344 15 102250 82
2007-09-11 08:10:45 51°15.818 2°49.687 17.6 280 15 102250 82
2007-09-11 08:10:50 51°15.827 2°49.665 17.7 344 15 102250 82
2007-09-11 08:10:55 51°15.836 2°49.644 15.9 280 15 102240 83
2007-09-11 08:11:00 51°15.844 2°49.622 16.8 346 15 102240 83
2007-09-11 08:11:05 51°15.854 2°49.601 18.3 281 15 102250 83
2007-09-11 08:11:10 51°15.861 2°49.579 16.5 345 15 102250 83
2007-09-11 08:11:16 51°15.872 2°49.553 16 282 15 102210 82
2007-09-11 08:11:21 51°15.881 2°49.532 16.3 346 15 102210 82
2007-09-11 08:11:25 51°15.887 2°49.515 15.9 282 15 102230 83
2007-09-11 08:11:31 51°15.897 2°49.489 13.5 344 15 102230 83
2007-09-11 08:11:36 51°15.906 2°49.469 15.7 345 14.9 102220 83
2007-09-11 08:11:40 51°15.913 2°49.451 17.5 346 14.9 102220 83
2007-09-11 08:11:45 51°15.922 2°49.429 16.8 283 14.9 102240 82
2007-09-11 08:11:50 51°15.931 2°49.408 16.3 346 14.9 102240 82
2007-09-11 08:11:55 51°15.94 2°49.385 15.2 283 14.9 102270 83
2007-09-11 08:12:00 51°15.95 2°49.363 15.4 342 14.9 102270 83
2007-09-11 08:12:05 51°15.958 2°49.34 18.1 279 14.9 102240 83
2007-09-11 08:12:10 51°15.968 2°49.318 16.8 342 14.9 102240 83
2007-09-11 08:12:15 51°15.976 2°49.294 15.8 282 14.9 102240 83
2007-09-11 08:12:20 51°15.985 2°49.272 16 339 14.9 102240 83
2007-09-11 08:12:26 51°15.995 2°49.247 17.4 282 15 102250 84
2007-09-11 08:12:31 51°16.004 2°49.225 16.2 343 15 102250 84
2007-09-11 08:12:36 51°16.012 2°49.203 16.8 341 15 102230 83
2007-09-11 08:12:40 51°16.019 2°49.185 16.6 343 15 102230 83
2007-09-11 08:12:45 51°16.028 2°49.163 15.4 280 15 102270 84
2007-09-11 08:12:50 51°16.036 2°49.14 15.3 345 15 102270 84
2007-09-11 08:12:55 51°16.044 2°49.117 16.3 281 14.9 102230 83
2007-09-11 08:13:00 51°16.051 2°49.093 15.4 349 14.9 102230 83
2007-09-11 08:13:05 51°16.056 2°49.068 15.4 352 14.9 102240 82
2007-09-11 08:13:10 51°16.061 2°49.043 15.3 351 14.9 102240 82
2007-09-11 08:13:15 51°16.063 2°49.019 14.2 355 14.9 102240 82
2007-09-11 08:13:20 51°16.065 2°48.996 13.9 354 14.9 102240 82
2007-09-11 08:13:25 51°16.066 2°48.975 13.6 356 14.9 102250 82
2007-09-11 08:13:30 51°16.066 2°48.954 13.4 358 14.9 102250 82
2007-09-11 08:13:35 51°16.065 2°48.935 13.7 358 14.9 102250 82
2007-09-11 08:13:40 51°16.063 2°48.917 12.3 2 14.9 102250 82
2007-09-11 08:13:45 51°16.062 2°48.9 10 3 14.8 102250 81
2007-09-11 08:13:50 51°16.06 2°48.883 9.7 7 14.8 102250 81
2007-09-11 08:13:55 51°16.059 2°48.867 9.8 8 14.8 102260 81
2007-09-11 08:14:00 51°16.055 2°48.851 12.2 7 14.8 102260 81
2007-09-11 08:14:05 51°16.054 2°48.836 9.2 7 14.8 102270 80
2007-09-11 08:14:10 51°16.05 2°48.821 9 4 14.8 102270 80
2007-09-11 08:14:15 51°16.048 2°48.807 8.8 4 14.8 102270 81
2007-09-11 08:14:20 51°16.045 2°48.793 9.8 6 14.8 102270 81
2007-09-11 08:14:25 51°16.042 2°48.779 10.3 7 14.8 102270 81
2007-09-11 08:14:30 51°16.04 2°48.765 9 8 14.8 102270 81
2007-09-11 08:14:35 51°16.036 2°48.752 13.7 9 14.9 102280 82
2007-09-11 08:14:40 51°16.032 2°48.74 9.9 8 14.9 102280 82
2007-09-11 08:14:45 51°16.03 2°48.728 9.4 6 14.9 102280 82
2007-09-11 08:14:51 51°16.025 2°48.713 13 8 14.9 102280 82
2007-09-11 08:14:55 51°16.023 2°48.703 12.7 9 14.9 102270 81
2007-09-11 08:15:00 51°16.02 2°48.691 12.4 10 14.9 102270 81
2007-09-11 08:15:05 51°16.017 2°48.68 7.6 4 14.9 102270 81
2007-09-11 08:15:10 51°16.013 2°48.669 11.8 8 14.9 102270 81
2007-09-11 08:15:16 51°16.01 2°48.657 11 7 14.8 102280 81
2007-09-11 08:15:20 51°16.008 2°48.65 10.9 9 14.8 102280 81
2007-09-11 08:15:25 51°16.005 2°48.641 10.5 8 14.8 102270 81
2007-09-11 08:15:30 51°16.002 2°48.631 10.3 7 14.8 102270 81
2007-09-11 08:15:35 51°15.999 2°48.623 10 8 14.9 102290 82
2007-09-11 08:15:40 51°15.997 2°48.615 10.9 6 14.9 102290 82
2007-09-11 08:15:45 51°15.994 2°48.607 12.2 8 14.9 102290 82
2007-09-11 08:15:50 51°15.992 2°48.599 10.4 8 14.9 102290 82
2007-09-11 08:15:55 51°15.989 2°48.592 10.7 10 14.9 102290 82
2007-09-11 08:16:00 51°15.987 2°48.585 12.9 10 14.9 102290 82
2007-09-11 08:16:05 51°15.985 2°48.578 12.8 10 14.9 102290 81
2007-09-11 08:16:10 51°15.982 2°48.572 11.3 8 14.9 102290 81
2007-09-11 08:16:15 51°15.98 2°48.566 12.2 10 14.8 102290 80
2007-09-11 08:16:20 51°15.978 2°48.56 11.6 9 14.8 102290 80
2007-09-11 08:16:25 51°15.975 2°48.554 13.8 12 14.8 102300 80
2007-09-11 08:16:30 51°15.974 2°48.548 8.5 10 14.8 102300 80
2007-09-11 08:16:35 51°15.97 2°48.543 11.7 12 14.8 102290 81
2007-09-11 08:16:40 51°15.969 2°48.538 11.7 9 14.8 102290 81
2007-09-11 08:16:45 51°15.965 2°48.533 12.5 13 14.9 102300 81
2007-09-11 08:16:50 51°15.964 2°48.528 10.1 9 14.9 102300 81
2007-09-11 08:16:55 51°15.96 2°48.523 10 10 14.9 102300 81
2007-09-11 08:17:00 51°15.959 2°48.518 11.3 13 14.9 102300 81
2007-09-11 08:17:05 51°15.956 2°48.513 11.3 13 14.8 102290 81
2007-09-11 08:17:10 51°15.954 2°48.509 11.2 13 14.8 102290 81
2007-09-11 08:17:15 51°15.952 2°48.504 11.8 12 14.8 102290 80
2007-09-11 08:17:20 51°15.95 2°48.5 11 13 14.8 102290 80
2007-09-11 08:17:25 51°15.948 2°48.496 10.1 16 14.8 102300 81
2007-09-11 08:17:30 51°15.945 2°48.492 10.6 11 14.8 102300 81
2007-09-11 08:17:35 51°15.943 2°48.488 10.9 9 14.9 102290 81
2007-09-11 08:17:40 51°15.941 2°48.484 11.7 13 14.9 102290 81
2007-09-11 08:17:45 51°15.939 2°48.48 9 8 14.9 102290 82
2007-09-11 08:17:50 51°15.936 2°48.477 12.8 12 14.9 102290 82
2007-09-11 08:17:55 51°15.934 2°48.473 11.4 14 14.9 102300 82
2007-09-11 08:18:00 51°15.932 2°48.469 8.8 9 14.9 102300 82
2007-09-11 08:18:05 51°15.927 2°48.468 12.5 14 14.9 102300 82
2007-09-11 08:18:10 51°15.928 2°48.464 8 15 14.9 102300 82
2007-09-11 08:18:15 51°15.924 2°48.461 9.9 15 14.9 102300 83
2007-09-11 08:18:20 51°15.922 2°48.458 10.4 18 14.9 102300 83
2007-09-11 08:18:25 51°15.92 2°48.454 7.5 17 15 102290 83
2007-09-11 08:18:30 51°15.917 2°48.452 10.7 18 15 102290 83
2007-09-11 08:18:35 51°15.915 2°48.449 8.7 16 15 102300 83
2007-09-11 08:18:40 51°15.913 2°48.446 10 10 15 102300 83
2007-09-11 08:18:45 51°15.911 2°48.443 10.1 10 15 102290 83
2007-09-11 08:18:50 51°15.909 2°48.44 9.9 16 15 102290 83
2007-09-11 08:18:55 51°15.906 2°48.438 9.6 15 15 102300 83
2007-09-11 08:19:00 51°15.904 2°48.435 9.1 17 15 102300 83
2007-09-11 08:19:05 51°15.902 2°48.433 9.4 17 15 102300 83
2007-09-11 08:19:10 51°15.9 2°48.43 8.5 18 15 102300 83
2007-09-11 08:19:15 51°15.898 2°48.428 9.1 19 15 102300 84
2007-09-11 08:19:20 51°15.895 2°48.426 10 16 15 102300 84
2007-09-11 08:19:25 51°15.894 2°48.423 8.2 17 15 102300 83
2007-09-11 08:19:30 51°15.892 2°48.42 7.8 11 15 102300 83
2007-09-11 08:19:35 51°15.889 2°48.418 7.6 14 15.1 102320 84
2007-09-11 08:19:40 51°15.888 2°48.415 8.1 13 15.1 102320 84
2007-09-11 08:19:45 51°15.885 2°48.413 8.4 15 15.1 102310 84
2007-09-11 08:19:51 51°15.882 2°48.41 9.3 13 15.1 102310 84
2007-09-11 08:19:55 51°15.879 2°48.409 11 15 15.1 102300 85
2007-09-11 08:20:00 51°15.879 2°48.406 9 15 15.1 102300 85
2007-09-11 08:20:05 51°15.875 2°48.404 10.5 17 15.2 102320 85
2007-09-11 08:20:10 51°15.873 2°48.402 9.6 18 15.2 102320 85
2007-09-11 08:20:16 51°15.87 2°48.4 10.2 17 15.1 102310 84
2007-09-11 08:20:20 51°15.869 2°48.398 9.6 18 15.1 102310 84
2007-09-11 08:20:25 51°15.865 2°48.398 10.7 22 15.1 102310 84
2007-09-11 08:20:30 51°15.864 2°48.395 10.5 22 15.1 102310 84
2007-09-11 08:20:35 51°15.861 2°48.394 9.9 21 15.1 102320 83
2007-09-11 08:20:40 51°15.86 2°48.391 9.5 26 15.1 102320 83
2007-09-11 08:20:45 51°15.856 2°48.391 11.1 22 15 102320 82
2007-09-11 08:20:50 51°15.855 2°48.388 8.9 29 15 102320 82
2007-09-11 08:20:55 51°15.852 2°48.387 8.4 24 15 102330 82
2007-09-11 08:21:00 51°15.85 2°48.385 8.5 25 15 102330 82
2007-09-11 08:21:05 51°15.849 2°48.383 8.6 25 15 102310 82
2007-09-11 08:21:10 51°15.846 2°48.382 9.2 25 15 102310 82
2007-09-11 08:21:15 51°15.844 2°48.38 8.3 30 15 102310 82
2007-09-11 08:21:20 51°15.842 2°48.379 8.5 28 15 102310 82
2007-09-11 08:21:25 51°15.84 2°48.377 9.1 28 15 102320 82
2007-09-11 08:21:30 51°15.838 2°48.375 9.8 26 15 102320 82
2007-09-11 08:21:35 51°15.836 2°48.374 9.1 28 15 102320 82
2007-09-11 08:21:40 51°15.834 2°48.372 8.5 24 15 102320 82
2007-09-11 08:21:45 51°15.831 2°48.371 10.1 22 15 102320 82
2007-09-11 08:21:50 51°15.83 2°48.368 7.2 19 15 102320 82
2007-09-11 08:21:55 51°15.826 2°48.366 8.5 22 15 102320 82
2007-09-11 08:22:00 51°15.824 2°48.365 10.9 22 15 102320 82
2007-09-11 08:22:05 51°15.822 2°48.36 9.6 19 15 102320 82
2007-09-11 08:22:10 51°15.819 2°48.357 9.4 18 15 102320 82
2007-09-11 08:22:15 51°15.816 2°48.353 8.8 16 15 102320 82
2007-09-11 08:22:20 51°15.813 2°48.348 9.6 16 15 102320 82
2007-09-11 08:22:25 51°15.81 2°48.343 10.7 9 15 102340 83
2007-09-11 08:22:30 51°15.808 2°48.338 10.2 12 15 102340 83
2007-09-11 08:22:36 51°15.805 2°48.331 11.9 14 15 102310 83
2007-09-11 08:22:40 51°15.802 2°48.326 11.8 13 15 102310 83
2007-09-11 08:22:45 51°15.8 2°48.32 11 10 15 102320 83
2007-09-11 08:22:50 51°15.798 2°48.313 7.4 8 15 102320 83
2007-09-11 08:22:55 51°15.795 2°48.306 9.3 5 15 102310 82
2007-09-11 08:23:00 51°15.792 2°48.3 9.5 5 15 102310 82
2007-09-11 08:23:05 51°15.79 2°48.293 7.3 5 15 102300 82
2007-09-11 08:23:10 51°15.789 2°48.286 7.6 6 15 102300 82
2007-09-11 08:23:15 51°15.786 2°48.28 10.1 6 15 102300 82
2007-09-11 08:23:20 51°15.785 2°48.275 8.9 7 15 102300 82
2007-09-11 08:23:25 51°15.783 2°48.269 11.3 10 15 102310 83
2007-09-11 08:23:30 51°15.781 2°48.264 8.7 9 15 102310 83
2007-09-11 08:23:35 51°15.778 2°48.259 9.4 9 15 102300 83
2007-09-11 08:23:40 51°15.777 2°48.253 8.8 7 15 102300 83
2007-09-11 08:23:45 51°15.774 2°48.247 10 8 15 102310 82
2007-09-11 08:23:50 51°15.774 2°48.24 7.8 3 15 102310 82
2007-09-11 08:23:55 51°15.771 2°48.234 10.7 2 15 102290 82
2007-09-11 08:24:00 51°15.77 2°48.227 9.8 4 15 102290 82
2007-09-11 08:24:05 51°15.768 2°48.219 9.2 -999 15 102310 82
2007-09-11 08:24:10 51°15.767 2°48.212 8.8 356 15 102310 82
2007-09-11 08:24:15 51°15.765 2°48.204 10.9 1 15.1 102310 83
2007-09-11 08:24:20 51°15.765 2°48.197 9.9 360 15.1 102310 83
2007-09-11 08:24:25 51°15.763 2°48.189 9.3 358 15.1 102310 83
2007-09-11 08:24:30 51°15.762 2°48.181 10.2 358 15.1 102310 83
2007-09-11 08:24:36 51°15.761 2°48.172 9.9 358 15.1 102310 83
2007-09-11 08:24:40 51°15.761 2°48.165 9.2 355 15.1 102310 83
2007-09-11 08:24:45 51°15.761 2°48.157 8.9 277 15 102300 82
2007-09-11 08:24:50 51°15.761 2°48.147 9.8 349 15 102300 82
2007-09-11 08:24:55 51°15.761 2°48.138 11.4 285 15 102310 82
2007-09-11 08:25:00 51°15.762 2°48.128 12.3 347 15 102310 82
2007-09-11 08:25:05 51°15.764 2°48.119 10.2 279 15 102320 82
2007-09-11 08:25:10 51°15.764 2°48.109 11 342 15 102320 82
2007-09-11 08:25:15 51°15.765 2°48.101 12.1 283 15.1 102300 84
2007-09-11 08:25:20 51°15.766 2°48.093 10.9 342 15.1 102300 84
2007-09-11 08:25:25 51°15.767 2°48.086 11.3 279 15.1 102300 83
2007-09-11 08:25:30 51°15.768 2°48.08 10.7 340 15.1 102300 83
2007-09-11 08:25:35 51°15.768 2°48.073 10.3 345 15.1 102280 82
2007-09-11 08:25:40 51°15.769 2°48.066 12 343 15.1 102280 82
2007-09-11 08:25:45 51°15.769 2°48.06 10.1 277 15.1 102280 82
2007-09-11 08:25:50 51°15.769 2°48.054 11 344 15.1 102280 82
2007-09-11 08:25:55 51°15.769 2°48.048 10.5 281 15 102270 81
2007-09-11 08:26:00 51°15.769 2°48.041 11.5 346 15 102270 81
2007-09-11 08:26:05 51°15.77 2°48.036 4.4 283 15 102280 81
2007-09-11 08:26:10 51°15.77 2°48.029 10.1 342 15 102280 81
2007-09-11 08:26:15 51°15.77 2°48.023 10.3 285 15 102290 81
2007-09-11 08:26:20 51°15.77 2°48.016 10.9 345 15 102290 81
2007-09-11 08:26:25 51°15.771 2°48.01 10 283 15 102290 81
2007-09-11 08:26:30 51°15.772 2°48.003 10.2 341 15 102290 81
2007-09-11 08:26:35 51°15.773 2°47.996 10.8 343 15 102290 81
2007-09-11 08:26:40 51°15.773 2°47.988 10 342 15 102290 81
2007-09-11 08:26:45 51°15.773 2°47.981 10.2 281 15 102280 81
2007-09-11 08:26:50 51°15.774 2°47.975 10.7 343 15 102280 81
2007-09-11 08:26:55 51°15.775 2°47.967 10.3 282 15 102280 81
2007-09-11 08:27:00 51°15.775 2°47.96 10.6 341 15 102280 81
2007-09-11 08:27:05 51°15.776 2°47.953 10.3 285 15 102280 81
2007-09-11 08:27:10 51°15.777 2°47.945 10.7 345 15 102280 81
2007-09-11 08:27:15 51°15.778 2°47.937 9.8 284 15 102280 81
2007-09-11 08:27:20 51°15.778 2°47.931 8.7 338 15 102280 81
2007-09-11 08:27:25 51°15.779 2°47.923 10.5 283 15 102280 82
2007-09-11 08:27:30 51°15.779 2°47.916 9.9 343 15 102280 82
2007-09-11 08:27:35 51°15.78 2°47.909 10.7 342 15.1 102290 83
2007-09-11 08:27:40 51°15.781 2°47.902 10.1 344 15.1 102290 83
2007-09-11 08:27:45 51°15.782 2°47.895 9.9 281 15.1 102310 83
2007-09-11 08:27:50 51°15.783 2°47.887 10.9 347 15.1 102310 83
2007-09-11 08:27:55 51°15.784 2°47.879 10.2 285 15.1 102270 83
2007-09-11 08:28:00 51°15.786 2°47.87 10.1 346 15.1 102270 83
2007-09-11 08:28:05 51°15.787 2°47.862 8 280 15.1 102300 83
2007-09-11 08:28:10 51°15.788 2°47.853 7.8 345 15.1 102300 83
2007-09-11 08:28:15 51°15.789 2°47.846 10.2 280 15.1 102300 83
2007-09-11 08:28:20 51°15.789 2°47.838 10.1 344 15.1 102300 83
2007-09-11 08:28:25 51°15.79 2°47.831 9.2 281 15.1 102290 83
2007-09-11 08:28:30 51°15.791 2°47.822 9.9 346 15.1 102290 83
2007-09-11 08:28:35 51°15.792 2°47.814 10.3 344 15.1 102310 83
2007-09-11 08:28:40 51°15.793 2°47.806 9.5 345 15.1 102310 83
2007-09-11 08:28:45 51°15.794 2°47.798 10.4 284 15.1 102290 83
2007-09-11 08:28:50 51°15.795 2°47.789 10.2 345 15.1 102290 83
2007-09-11 08:28:55 51°15.797 2°47.78 8.9 280 15.1 102300 83
2007-09-11 08:29:00 51°15.799 2°47.77 10.1 343 15.1 102300 83
2007-09-11 08:29:05 51°15.801 2°47.76 10.3 281 15.1 102300 83
2007-09-11 08:29:10 51°15.802 2°47.75 10.7 347 15.1 102300 83
2007-09-11 08:29:16 51°15.804 2°47.739 10.2 284 15.1 102300 84
2007-09-11 08:29:20 51°15.805 2°47.73 10.8 348 15.1 102300 84
2007-09-11 08:29:25 51°15.807 2°47.721 9.7 350 15.1 102300 83
2007-09-11 08:29:30 51°15.808 2°47.711 8.9 346 15.1 102300 83
2007-09-11 08:29:35 51°15.809 2°47.7 11.2 350 15.2 102300 83
2007-09-11 08:29:40 51°15.81 2°47.69 10.4 349 15.2 102300 83
2007-09-11 08:29:45 51°15.811 2°47.679 10.5 278 15.1 102290 83
2007-09-11 08:29:50 51°15.811 2°47.669 10.7 352 15.1 102290 83
2007-09-11 08:29:55 51°15.813 2°47.659 10.7 352 15.1 102300 83
2007-09-11 08:30:00 51°15.813 2°47.648 10.6 351 15.1 102300 83
2007-09-11 08:30:05 51°15.813 2°47.638 9.3 349 15.1 102300 83
2007-09-11 08:30:10 51°15.814 2°47.628 10.4 346 15.1 102300 83
2007-09-11 08:30:15 51°15.814 2°47.618 11.3 351 15.1 102290 83
2007-09-11 08:30:20 51°15.815 2°47.608 9.8 348 15.1 102290 83
2007-09-11 08:30:25 51°15.814 2°47.597 11.8 279 15.1 102290 83
2007-09-11 08:30:30 51°15.815 2°47.589 9.9 347 15.1 102290 83
2007-09-11 08:30:35 51°15.814 2°47.579 10.1 352 15.1 102310 84
2007-09-11 08:30:40 51°15.814 2°47.571 10.2 349 15.1 102310 84
2007-09-11 08:30:45 51°15.813 2°47.562 10.4 354 15.1 102310 83
2007-09-11 08:30:50 51°15.813 2°47.554 10.7 348 15.1 102310 83
2007-09-11 08:30:56 51°15.812 2°47.544 10.3 354 15.1 102280 83
2007-09-11 08:31:00 51°15.812 2°47.538 9.5 352 15.1 102280 83
2007-09-11 08:31:05 51°15.811 2°47.53 9.8 360 15.1 102280 83
2007-09-11 08:31:10 51°15.811 2°47.522 8.8 354 15.1 102280 83
2007-09-11 08:31:15 51°15.81 2°47.514 10.2 355 15.1 102280 83
2007-09-11 08:31:20 51°15.81 2°47.507 9.8 353 15.1 102280 83
2007-09-11 08:31:25 51°15.809 2°47.499 10.4 357 15.1 102300 83
2007-09-11 08:31:30 51°15.809 2°47.491 10.1 355 15.1 102300 83
2007-09-11 08:31:36 51°15.807 2°47.482 10 357 15.1 102310 83
2007-09-11 08:31:40 51°15.807 2°47.475 9.6 357 15.1 102310 83
2007-09-11 08:31:45 51°15.806 2°47.468 10.3 357 15.1 102300 84
2007-09-11 08:31:50 51°15.805 2°47.461 10.1 358 15.1 102300 84
2007-09-11 08:31:55 51°15.804 2°47.453 10.3 358 15.1 102300 84
2007-09-11 08:32:00 51°15.803 2°47.445 9.7 359 15.1 102300 84
2007-09-11 08:32:05 51°15.802 2°47.438 10 357 15.1 102320 83
2007-09-11 08:32:10 51°15.801 2°47.431 10.8 1 15.1 102320 83
2007-09-11 08:32:15 51°15.8 2°47.424 9.3 360 15.1 102320 83
2007-09-11 08:32:21 51°15.798 2°47.414 9.5 3 15.1 102320 83
2007-09-11 08:32:25 51°15.799 2°47.409 9.4 360 15 102320 83
2007-09-11 08:32:30 51°15.797 2°47.401 10.5 358 15 102320 83
2007-09-11 08:32:35 51°15.796 2°47.393 9.5 360 15 102320 83
2007-09-11 08:32:40 51°15.795 2°47.385 10.9 1 15 102320 83
2007-09-11 08:32:45 51°15.795 2°47.376 9.5 357 15 102320 82
2007-09-11 08:32:50 51°15.793 2°47.367 9.7 2 15 102320 82
2007-09-11 08:32:55 51°15.793 2°47.358 10.4 1 15 102310 82
2007-09-11 08:33:00 51°15.792 2°47.349 9.7 357 15 102310 82
2007-09-11 08:33:05 51°15.792 2°47.339 10.7 1 15 102330 82
2007-09-11 08:33:10 51°15.791 2°47.329 9.3 353 15 102330 82
2007-09-11 08:33:15 51°15.791 2°47.319 10.1 350 15 102320 82
2007-09-11 08:33:20 51°15.79 2°47.309 9.2 355 15 102320 82
2007-09-11 08:33:25 51°15.79 2°47.299 7.3 280 15 102330 83
2007-09-11 08:33:30 51°15.789 2°47.289 12.1 358 15 102330 83
2007-09-11 08:33:35 51°15.789 2°47.279 13.3 350 15.1 102310 83
2007-09-11 08:33:40 51°15.789 2°47.27 12.3 7 15.1 102310 83
2007-09-11 08:33:45 51°15.789 2°47.261 12 16 15.1 102320 83
2007-09-11 08:33:50 51°15.788 2°47.25 10.3 18 15.1 102320 83
2007-09-11 08:33:55 51°15.787 2°47.24 9.2 12 15.1 102330 84
2007-09-11 08:34:00 51°15.787 2°47.23 9.2 17 15.1 102330 84
2007-09-11 08:34:05 51°15.786 2°47.22 10.1 18 15.2 102300 85
2007-09-11 08:34:10 51°15.786 2°47.211 7.9 15 15.2 102300 85
2007-09-11 08:34:15 51°15.785 2°47.201 9.6 11 15.2 102300 85
2007-09-11 08:34:20 51°15.786 2°47.191 6.7 9 15.2 102300 85
2007-09-11 08:34:25 51°15.784 2°47.181 10.2 9 15.3 102320 85
2007-09-11 08:34:30 51°15.785 2°47.172 6.4 10 15.3 102320 85
2007-09-11 08:34:35 51°15.784 2°47.163 9.6 10 15.3 102330 85
2007-09-11 08:34:41 51°15.783 2°47.151 10.2 11 15.3 102330 85
2007-09-11 08:34:45 51°15.783 2°47.144 8.3 13 15.3 102330 86
2007-09-11 08:34:50 51°15.781 2°47.134 11 17 15.3 102330 86
2007-09-11 08:34:55 51°15.781 2°47.125 8.9 14 15.3 102340 86
2007-09-11 08:35:00 51°15.779 2°47.115 10.9 17 15.3 102340 86
2007-09-11 08:35:05 51°15.78 2°47.106 9.8 15 15.3 102330 86
2007-09-11 08:35:10 51°15.778 2°47.097 9.7 14 15.3 102330 86
2007-09-11 08:35:15 51°15.777 2°47.088 9.9 13 15.2 102340 86
2007-09-11 08:35:20 51°15.775 2°47.079 10.5 16 15.2 102340 86
2007-09-11 08:35:25 51°15.774 2°47.071 11.6 12 15.2 102340 86
2007-09-11 08:35:31 51°15.773 2°47.061 9.7 11 15.2 102340 86
2007-09-11 08:35:36 51°15.771 2°47.052 9.7 17 15.2 102320 86
2007-09-11 08:35:40 51°15.77 2°47.045 9.9 14 15.2 102320 86
2007-09-11 08:35:45 51°15.769 2°47.037 9.1 17 15.1 102320 86
2007-09-11 08:35:50 51°15.768 2°47.029 8.5 15 15.1 102320 86
2007-09-11 08:35:56 51°15.767 2°47.018 8.7 18 15.1 102320 86
2007-09-11 08:36:00 51°15.766 2°47.011 8.4 19 15.1 102320 86
2007-09-11 08:36:05 51°15.765 2°47.002 8.5 9 15.1 102330 86
2007-09-11 08:36:10 51°15.764 2°46.992 10 10 15.1 102330 86
2007-09-11 08:36:15 51°15.763 2°46.982 9.8 16 15 102320 86
2007-09-11 08:36:20 51°15.762 2°46.972 7.9 19 15 102320 86
2007-09-11 08:36:25 51°15.761 2°46.962 7.7 16 15 102330 86
2007-09-11 08:36:30 51°15.76 2°46.953 7.9 15 15 102330 86
2007-09-11 08:36:35 51°15.759 2°46.943 8.7 15 15 102330 87
2007-09-11 08:36:40 51°15.758 2°46.934 9 18 15 102330 87
2007-09-11 08:36:45 51°15.757 2°46.924 7.9 19 15 102320 87
2007-09-11 08:36:50 51°15.756 2°46.915 9.2 18 15 102320 87
2007-09-11 08:36:55 51°15.755 2°46.907 9.3 21 15 102330 88
2007-09-11 08:37:00 51°15.753 2°46.898 9.9 19 15 102330 88
2007-09-11 08:37:05 51°15.752 2°46.889 9.9 23 15 102330 88
2007-09-11 08:37:10 51°15.751 2°46.88 9.9 23 15 102330 88
2007-09-11 08:37:15 51°15.75 2°46.872 9.5 23 15 102340 88
2007-09-11 08:37:20 51°15.749 2°46.863 7.7 24 15 102340 88
2007-09-11 08:37:25 51°15.748 2°46.854 10.1 21 15 102320 89
2007-09-11 08:37:30 51°15.746 2°46.846 10.2 25 15 102320 89
2007-09-11 08:37:35 51°15.744 2°46.838 10 26 14.9 102320 89
2007-09-11 08:37:40 51°15.743 2°46.829 11.2 25 14.9 102320 89
2007-09-11 08:37:45 51°15.741 2°46.82 12.3 26 14.9 102330 89
2007-09-11 08:37:51 51°15.74 2°46.81 10.1 26 14.9 102330 89
2007-09-11 08:37:55 51°15.738 2°46.803 10.7 22 14.9 102320 89
2007-09-11 08:38:00 51°15.737 2°46.794 9.6 22 14.9 102320 89
2007-09-11 08:38:05 51°15.736 2°46.785 10.9 24 14.9 102330 89
2007-09-11 08:38:10 51°15.734 2°46.776 11.4 22 14.9 102330 89
2007-09-11 08:38:16 51°15.733 2°46.766 10 23 14.9 102340 89
2007-09-11 08:38:20 51°15.731 2°46.759 10.8 23 14.9 102340 89
2007-09-11 08:38:25 51°15.729 2°46.75 9.5 24 14.9 102330 89
2007-09-11 08:38:30 51°15.729 2°46.74 8.9 22 14.9 102330 89
2007-09-11 08:38:36 51°15.726 2°46.729 10.9 20 14.9 102350 90
2007-09-11 08:38:40 51°15.725 2°46.722 11 21 14.9 102350 90
2007-09-11 08:38:45 51°15.723 2°46.713 11.8 19 14.9 102340 90
2007-09-11 08:38:50 51°15.723 2°46.703 9.5 22 14.9 102340 90
2007-09-11 08:38:55 51°15.721 2°46.694 9.9 18 14.9 102350 90
2007-09-11 08:39:00 51°15.719 2°46.685 11.3 22 14.9 102350 90
2007-09-11 08:39:05 51°15.719 2°46.676 10.4 20 14.9 102340 90
2007-09-11 08:39:10 51°15.716 2°46.667 11.6 24 14.9 102340 90
2007-09-11 08:39:15 51°15.716 2°46.658 9.7 27 14.8 102340 90
2007-09-11 08:39:20 51°15.714 2°46.648 11.1 22 14.8 102340 90
2007-09-11 08:39:25 51°15.714 2°46.638 10.3 24 14.8 102350 90
2007-09-11 08:39:30 51°15.711 2°46.628 12.5 24 14.8 102350 90
2007-09-11 08:39:35 51°15.712 2°46.619 11.9 23 14.9 102320 91
2007-09-11 08:39:40 51°15.71 2°46.608 10.8 22 14.9 102320 91
2007-09-11 08:39:45 51°15.71 2°46.599 9.7 17 14.9 102330 91
2007-09-11 08:39:50 51°15.707 2°46.588 10.6 21 14.9 102330 91
2007-09-11 08:39:55 51°15.707 2°46.578 9.6 20 14.8 102350 91
2007-09-11 08:40:00 51°15.706 2°46.569 10.1 16 14.8 102350 91
2007-09-11 08:40:05 51°15.705 2°46.56 9.8 19 14.8 102340 91
2007-09-11 08:40:10 51°15.703 2°46.551 11.1 19 14.8 102340 91
2007-09-11 08:40:15 51°15.703 2°46.543 11 25 14.8 102350 91
2007-09-11 08:40:20 51°15.702 2°46.535 9.5 22 14.8 102350 91
2007-09-11 08:40:25 51°15.7 2°46.526 11.5 22 14.9 102340 92
2007-09-11 08:40:30 51°15.699 2°46.518 11.3 21 14.9 102340 92
2007-09-11 08:40:36 51°15.698 2°46.508 10.9 21 14.9 102340 92
2007-09-11 08:40:40 51°15.698 2°46.501 10.6 17 14.9 102340 92
2007-09-11 08:40:45 51°15.696 2°46.491 10 17 14.9 102340 92
2007-09-11 08:40:50 51°15.695 2°46.482 11.5 17 14.9 102340 92
2007-09-11 08:40:56 51°15.694 2°46.471 11.2 18 14.8 102340 91
2007-09-11 08:41:00 51°15.693 2°46.463 11.1 19 14.8 102340 91
2007-09-11 08:41:05 51°15.693 2°46.454 9.9 21 14.8 102350 91
2007-09-11 08:41:10 51°15.691 2°46.444 10.4 20 14.8 102350 91
2007-09-11 08:41:15 51°15.69 2°46.435 12.3 23 14.8 102340 91
2007-09-11 08:41:20 51°15.689 2°46.427 9.9 25 14.8 102340 91
2007-09-11 08:41:25 51°15.687 2°46.418 11.9 20 14.8 102340 91
2007-09-11 08:41:30 51°15.687 2°46.41 10.9 21 14.8 102340 91
2007-09-11 08:41:35 51°15.685 2°46.402 11.3 22 14.7 102330 92
2007-09-11 08:41:40 51°15.684 2°46.394 11.2 22 14.7 102330 92
2007-09-11 08:41:45 51°15.683 2°46.385 11.2 20 14.7 102340 91
2007-09-11 08:41:50 51°15.682 2°46.377 11.2 19 14.7 102340 91
2007-09-11 08:41:55 51°15.68 2°46.369 12.1 20 14.7 102350 91
2007-09-11 08:42:00 51°15.68 2°46.36 12.1 22 14.7 102350 91
2007-09-11 08:42:05 51°15.678 2°46.351 12.1 21 14.7 102330 91
2007-09-11 08:42:10 51°15.678 2°46.342 11.2 22 14.7 102330 91
2007-09-11 08:42:15 51°15.676 2°46.333 9.8 22 14.6 102350 91
2007-09-11 08:42:20 51°15.675 2°46.324 10.4 23 14.6 102350 91
2007-09-11 08:42:25 51°15.673 2°46.316 11.3 21 14.6 102340 91
2007-09-11 08:42:30 51°15.672 2°46.307 12.1 24 14.6 102340 91
2007-09-11 08:42:36 51°15.67 2°46.296 10.7 25 14.6 102330 91
2007-09-11 08:42:40 51°15.669 2°46.288 11.2 26 14.6 102330 91
2007-09-11 08:42:45 51°15.668 2°46.279 10.6 24 14.6 102350 91
2007-09-11 08:42:50 51°15.666 2°46.269 10 24 14.6 102350 91
2007-09-11 08:42:55 51°15.664 2°46.261 10.3 27 14.6 102340 92
2007-09-11 08:43:00 51°15.662 2°46.251 9.9 31 14.6 102340 92
2007-09-11 08:43:05 51°15.66 2°46.242 10 24 14.6 102360 91
2007-09-11 08:43:10 51°15.658 2°46.232 9.7 31 14.6 102360 91
2007-09-11 08:43:15 51°15.655 2°46.223 10 34 14.6 102340 91
2007-09-11 08:43:20 51°15.653 2°46.214 10 32 14.6 102340 91
2007-09-11 08:43:25 51°15.651 2°46.205 9.6 29 14.6 102340 92
2007-09-11 08:43:30 51°15.648 2°46.196 9 30 14.6 102340 92
2007-09-11 08:43:35 51°15.646 2°46.187 9.5 30 14.6 102340 92
2007-09-11 08:43:40 51°15.643 2°46.178 9.4 34 14.6 102340 92
2007-09-11 08:43:45 51°15.641 2°46.168 10.5 34 14.6 102350 92
2007-09-11 08:43:50 51°15.638 2°46.159 10.2 34 14.6 102350 92
2007-09-11 08:43:55 51°15.635 2°46.15 9.7 32 14.6 102350 91
2007-09-11 08:44:00 51°15.633 2°46.14 9.4 32 14.6 102350 91
2007-09-11 08:44:05 51°15.63 2°46.132 11.3 30 14.6 102340 92
2007-09-11 08:44:10 51°15.628 2°46.123 10.4 30 14.6 102340 92
2007-09-11 08:44:15 51°15.625 2°46.114 10.8 33 14.6 102340 92
2007-09-11 08:44:20 51°15.622 2°46.106 11.3 32 14.6 102340 92
2007-09-11 08:44:25 51°15.619 2°46.098 10.5 26 14.6 102350 92
2007-09-11 08:44:30 51°15.616 2°46.089 9.5 34 14.6 102350 92
2007-09-11 08:44:35 51°15.614 2°46.081 10.2 26 14.6 102350 92
2007-09-11 08:44:40 51°15.61 2°46.073 11.6 32 14.6 102350 92
2007-09-11 08:44:45 51°15.608 2°46.064 9.6 32 14.6 102350 92
2007-09-11 08:44:51 51°15.604 2°46.054 10.6 33 14.6 102350 92
2007-09-11 08:44:55 51°15.602 2°46.047 9.7 34 14.6 102340 92
2007-09-11 08:45:00 51°15.599 2°46.039 9.4 36 14.6 102340 92
2007-09-11 08:45:05 51°15.596 2°46.03 11.3 33 14.6 102350 92
2007-09-11 08:45:10 51°15.594 2°46.022 10.3 34 14.6 102350 92
2007-09-11 08:45:15 51°15.591 2°46.013 10.6 32 14.5 102350 91
2007-09-11 08:45:20 51°15.588 2°46.005 9.8 34 14.5 102350 91
2007-09-11 08:45:25 51°15.584 2°45.996 9.7 31 14.5 102350 91
2007-09-11 08:45:30 51°15.582 2°45.987 8.7 32 14.5 102350 91
2007-09-11 08:45:35 51°15.579 2°45.979 9.6 26 14.5 102360 91
2007-09-11 08:45:41 51°15.576 2°45.968 9.3 32 14.5 102360 91
2007-09-11 08:45:45 51°15.574 2°45.961 8.9 33 14.5 102340 91
2007-09-11 08:45:50 51°15.571 2°45.952 10.9 32 14.5 102340 91
2007-09-11 08:45:55 51°15.569 2°45.944 9.8 31 14.5 102350 91
2007-09-11 08:46:00 51°15.566 2°45.934 10.2 34 14.5 102350 91
2007-09-11 08:46:05 51°15.563 2°45.926 9.9 35 14.6 102340 92
2007-09-11 08:46:10 51°15.561 2°45.917 11 32 14.6 102340 92
2007-09-11 08:46:15 51°15.558 2°45.908 11 33 14.6 102350 92
2007-09-11 08:46:20 51°15.555 2°45.899 10.8 33 14.6 102350 92
2007-09-11 08:46:25 51°15.553 2°45.89 9.3 34 14.6 102350 92
2007-09-11 08:46:30 51°15.549 2°45.882 10.9 32 14.6 102350 92
2007-09-11 08:46:35 51°15.547 2°45.873 10.1 35 14.6 102360 92
2007-09-11 08:46:40 51°15.544 2°45.864 9 36 14.6 102360 92
2007-09-11 08:46:45 51°15.541 2°45.856 9.1 29 14.5 102360 91
2007-09-11 08:46:50 51°15.537 2°45.847 8.9 36 14.5 102360 91
2007-09-11 08:46:55 51°15.535 2°45.838 7.4 41 14.5 102350 91
2007-09-11 08:47:00 51°15.531 2°45.829 9.8 29 14.5 102350 91
2007-09-11 08:47:05 51°15.528 2°45.82 9.6 35 14.5 102350 91
2007-09-11 08:47:11 51°15.525 2°45.81 7.9 35 14.5 102350 91
2007-09-11 08:47:15 51°15.522 2°45.803 8.7 35 14.5 102350 91
2007-09-11 08:47:20 51°15.519 2°45.795 9.9 35 14.5 102350 91
2007-09-11 08:47:25 51°15.516 2°45.786 9.6 35 14.5 102340 92
2007-09-11 08:47:30 51°15.513 2°45.777 9.3 36 14.5 102340 92
2007-09-11 08:47:36 51°15.509 2°45.767 9 33 14.5 102350 92
2007-09-11 08:47:40 51°15.507 2°45.76 8.9 35 14.5 102350 92
2007-09-11 08:47:45 51°15.504 2°45.752 9 36 14.5 102350 91
2007-09-11 08:47:50 51°15.501 2°45.743 8.5 32 14.5 102350 91
2007-09-11 08:47:55 51°15.498 2°45.735 9.7 34 14.5 102350 91
2007-09-11 08:48:00 51°15.495 2°45.727 9.4 33 14.5 102350 91
2007-09-11 08:48:05 51°15.492 2°45.719 8.8 28 14.5 102350 91
2007-09-11 08:48:10 51°15.489 2°45.71 8.4 32 14.5 102350 91
2007-09-11 08:48:15 51°15.486 2°45.702 9 33 14.5 102350 92
2007-09-11 08:48:20 51°15.483 2°45.694 8.7 31 14.5 102350 92
2007-09-11 08:48:25 51°15.479 2°45.686 7.9 36 14.5 102350 92
2007-09-11 08:48:30 51°15.476 2°45.677 8.7 35 14.5 102350 92
2007-09-11 08:48:35 51°15.472 2°45.669 6.9 30 14.5 102350 92
2007-09-11 08:48:40 51°15.47 2°45.66 8 37 14.5 102350 92
2007-09-11 08:48:45 51°15.466 2°45.651 8.9 36 14.6 102340 92
2007-09-11 08:48:51 51°15.462 2°45.641 8.4 39 14.6 102340 92
2007-09-11 08:48:55 51°15.459 2°45.635 9.3 35 14.6 102350 93
2007-09-11 08:49:00 51°15.456 2°45.626 10 36 14.6 102350 93
2007-09-11 08:49:05 51°15.453 2°45.617 10.3 34 14.6 102360 93
2007-09-11 08:49:10 51°15.449 2°45.609 10.4 34 14.6 102360 93
2007-09-11 08:49:16 51°15.444 2°45.599 10 35 14.6 102360 92
2007-09-11 08:49:20 51°15.443 2°45.591 7.9 38 14.6 102360 92
2007-09-11 08:49:25 51°15.439 2°45.583 9.2 38 14.6 102360 92
2007-09-11 08:49:31 51°15.434 2°45.573 10.7 34 14.6 102360 92
2007-09-11 08:49:36 51°15.432 2°45.564 11.4 34 14.5 102360 92
2007-09-11 08:49:40 51°15.428 2°45.558 8.8 31 14.5 102360 92
2007-09-11 08:49:45 51°15.425 2°45.549 9.5 33 14.5 102350 92
2007-09-11 08:49:50 51°15.423 2°45.54 9.3 35 14.5 102350 92
2007-09-11 08:49:55 51°15.42 2°45.532 9.4 31 14.5 102370 92
2007-09-11 08:50:00 51°15.417 2°45.523 8 35 14.5 102370 92
2007-09-11 08:50:05 51°15.413 2°45.515 10.4 32 14.5 102350 91
2007-09-11 08:50:10 51°15.411 2°45.506 8.5 36 14.5 102350 91
2007-09-11 08:50:15 51°15.407 2°45.498 10.1 34 14.4 102360 91
2007-09-11 08:50:20 51°15.405 2°45.49 8 36 14.4 102360 91
2007-09-11 08:50:25 51°15.402 2°45.481 9.6 35 14.4 102360 91
2007-09-11 08:50:30 51°15.399 2°45.473 8.7 33 14.4 102360 91
2007-09-11 08:50:35 51°15.396 2°45.464 10 32 14.4 102360 91
2007-09-11 08:50:40 51°15.392 2°45.456 10.5 35 14.4 102360 91
2007-09-11 08:50:45 51°15.39 2°45.447 9 34 14.4 102370 91
2007-09-11 08:50:50 51°15.387 2°45.438 8.8 36 14.4 102370 91
2007-09-11 08:50:55 51°15.384 2°45.429 8.2 33 14.4 102360 91
2007-09-11 08:51:00 51°15.382 2°45.419 7.9 36 14.4 102360 91
2007-09-11 08:51:05 51°15.378 2°45.411 8.2 34 14.4 102360 91
2007-09-11 08:51:11 51°15.375 2°45.4 5.9 37 14.4 102360 91
2007-09-11 08:51:15 51°15.373 2°45.393 6.7 37 14.4 102360 91
2007-09-11 08:51:20 51°15.369 2°45.385 8.1 33 14.4 102360 91
2007-09-11 08:51:25 51°15.367 2°45.375 7.5 33 14.4 102360 91
2007-09-11 08:51:30 51°15.363 2°45.367 8.1 36 14.4 102360 91
2007-09-11 08:51:36 51°15.359 2°45.357 7.7 38 14.3 102360 91
2007-09-11 08:51:40 51°15.357 2°45.35 6.5 37 14.3 102360 91
2007-09-11 08:51:45 51°15.353 2°45.341 6.6 40 14.3 102370 91
2007-09-11 08:51:50 51°15.349 2°45.333 8.1 33 14.3 102370 91
2007-09-11 08:51:56 51°15.346 2°45.323 7.4 33 14.3 102350 91
2007-09-11 08:52:00 51°15.343 2°45.317 6.8 33 14.3 102350 91
2007-09-11 08:52:05 51°15.341 2°45.308 7.2 32 14.3 102350 91
2007-09-11 08:52:10 51°15.337 2°45.301 7.3 32 14.3 102350 91
2007-09-11 08:52:16 51°15.334 2°45.291 6.1 30 14.4 102360 92
2007-09-11 08:52:20 51°15.331 2°45.285 10 35 14.4 102360 92
2007-09-11 08:52:25 51°15.329 2°45.277 8.5 33 14.4 102360 92
2007-09-11 08:52:30 51°15.325 2°45.269 9.5 35 14.4 102360 92
2007-09-11 08:52:35 51°15.323 2°45.261 9 34 14.4 102350 93
2007-09-11 08:52:40 51°15.319 2°45.254 9.8 33 14.4 102350 93
2007-09-11 08:52:45 51°15.316 2°45.246 9.2 36 14.4 102360 93
2007-09-11 08:52:50 51°15.312 2°45.239 9.2 36 14.4 102360 93
2007-09-11 08:52:55 51°15.31 2°45.231 8.6 33 14.4 102360 93
2007-09-11 08:53:01 51°15.306 2°45.222 8.8 35 14.4 102360 93
2007-09-11 08:53:05 51°15.304 2°45.215 8.6 39 14.4 102370 92
2007-09-11 08:53:10 51°15.3 2°45.207 9.8 34 14.4 102370 92
2007-09-11 08:53:15 51°15.298 2°45.199 9.3 34 14.4 102370 92
2007-09-11 08:53:20 51°15.295 2°45.19 9.5 34 14.4 102370 92
2007-09-11 08:53:25 51°15.292 2°45.182 9 39 14.4 102360 92
2007-09-11 08:53:30 51°15.289 2°45.173 9.5 35 14.4 102360 92
2007-09-11 08:53:35 51°15.287 2°45.164 11.4 34 14.5 102360 92
2007-09-11 08:53:40 51°15.282 2°45.157 10.9 31 14.5 102360 92
2007-09-11 08:53:45 51°15.28 2°45.147 9.4 30 14.4 102370 92
2007-09-11 08:53:51 51°15.276 2°45.137 9.8 30 14.4 102370 92
2007-09-11 08:53:56 51°15.273 2°45.128 8 33 14.4 102360 92
2007-09-11 08:54:00 51°15.271 2°45.121 8.5 34 14.4 102360 92
2007-09-11 08:54:05 51°15.268 2°45.112 7.9 30 14.4 102350 92
2007-09-11 08:54:11 51°15.264 2°45.102 8.6 25 14.4 102350 92
2007-09-11 08:54:16 51°15.261 2°45.093 9.3 28 14.4 102360 92
2007-09-11 08:54:20 51°15.259 2°45.086 8.1 31 14.4 102360 92
2007-09-11 08:54:25 51°15.256 2°45.077 7.4 37 14.5 102360 92
2007-09-11 08:54:30 51°15.253 2°45.068 8.2 34 14.5 102360 92
2007-09-11 08:54:36 51°15.249 2°45.057 9.8 29 14.5 102360 93
2007-09-11 08:54:40 51°15.246 2°45.05 9.7 28 14.5 102360 93
2007-09-11 08:54:45 51°15.244 2°45.041 8.8 29 14.5 102370 93
2007-09-11 08:54:50 51°15.24 2°45.032 7.2 33 14.5 102370 93
2007-09-11 08:54:55 51°15.237 2°45.023 10.8 34 14.5 102370 93
2007-09-11 08:55:00 51°15.234 2°45.014 9.6 35 14.5 102370 93
2007-09-11 08:55:05 51°15.231 2°45.005 8.7 34 14.5 102370 93
2007-09-11 08:55:10 51°15.227 2°44.996 8.2 34 14.5 102370 93
2007-09-11 08:55:15 51°15.224 2°44.987 7.9 32 14.5 102360 93
2007-09-11 08:55:20 51°15.221 2°44.978 7.3 32 14.5 102360 93
2007-09-11 08:55:25 51°15.218 2°44.969 8.4 29 14.5 102380 92
2007-09-11 08:55:30 51°15.215 2°44.961 8.3 35 14.5 102380 92
2007-09-11 08:55:35 51°15.211 2°44.952 8.1 36 14.5 102360 92
2007-09-11 08:55:40 51°15.208 2°44.944 9.2 36 14.5 102360 92
2007-09-11 08:55:45 51°15.205 2°44.935 9.6 34 14.5 102370 92
2007-09-11 08:55:50 51°15.201 2°44.927 10.8 34 14.5 102370 92
2007-09-11 08:55:55 51°15.198 2°44.92 10.6 34 14.6 102370 93
2007-09-11 08:56:00 51°15.195 2°44.911 8.9 37 14.6 102370 93
2007-09-11 08:56:05 51°15.192 2°44.904 10.2 32 14.5 102380 92
2007-09-11 08:56:10 51°15.189 2°44.896 9 36 14.5 102380 92
2007-09-11 08:56:15 51°15.186 2°44.888 8.7 35 14.5 102370 92
2007-09-11 08:56:20 51°15.183 2°44.88 9.3 39 14.5 102370 92
2007-09-11 08:56:25 51°15.179 2°44.873 8.4 35 14.5 102370 92
2007-09-11 08:56:30 51°15.177 2°44.865 10 35 14.5 102370 92
2007-09-11 08:56:35 51°15.174 2°44.857 9.4 33 14.5 102370 92
2007-09-11 08:56:40 51°15.171 2°44.849 9.4 38 14.5 102370 92
2007-09-11 08:56:45 51°15.167 2°44.841 9.7 34 14.5 102360 92
2007-09-11 08:56:50 51°15.164 2°44.832 7.8 34 14.5 102360 92
2007-09-11 08:56:56 51°15.159 2°44.822 9.4 35 14.5 102370 92
2007-09-11 08:57:00 51°15.157 2°44.815 8.1 37 14.5 102370 92
2007-09-11 08:57:05 51°15.153 2°44.806 7.8 35 14.5 102370 92
2007-09-11 08:57:10 51°15.15 2°44.796 9.3 37 14.5 102370 92
2007-09-11 08:57:15 51°15.146 2°44.787 8.5 37 14.5 102370 92
2007-09-11 08:57:20 51°15.142 2°44.778 8 35 14.5 102370 92
2007-09-11 08:57:25 51°15.139 2°44.768 6.6 38 14.5 102370 92
2007-09-11 08:57:30 51°15.134 2°44.759 8.8 35 14.5 102370 92
2007-09-11 08:57:35 51°15.131 2°44.748 8.7 36 14.5 102370 92
2007-09-11 08:57:40 51°15.126 2°44.739 8.6 36 14.5 102370 92
2007-09-11 08:57:45 51°15.123 2°44.728 7.4 35 14.5 102370 92
2007-09-11 08:57:50 51°15.118 2°44.72 9.6 33 14.5 102370 92
2007-09-11 08:57:55 51°15.115 2°44.709 9.2 37 14.5 102360 92
2007-09-11 08:58:00 51°15.111 2°44.7 8.8 37 14.5 102360 92
2007-09-11 08:58:05 51°15.107 2°44.691 9.1 33 14.5 102370 92
2007-09-11 08:58:11 51°15.104 2°44.68 8.4 40 14.5 102370 92
2007-09-11 08:58:15 51°15.1 2°44.673 7.9 36 14.5 102370 92
2007-09-11 08:58:20 51°15.098 2°44.665 7.3 34 14.5 102370 92
2007-09-11 08:58:25 51°15.094 2°44.657 8.8 35 14.5 102370 92
2007-09-11 08:58:30 51°15.091 2°44.649 8.9 36 14.5 102370 92
2007-09-11 08:58:36 51°15.087 2°44.64 9 36 14.5 102370 92
2007-09-11 08:58:40 51°15.085 2°44.633 8.8 39 14.5 102370 92
2007-09-11 08:58:45 51°15.081 2°44.625 8.5 38 14.4 102380 92
2007-09-11 08:58:50 51°15.078 2°44.617 8.1 37 14.4 102380 92
2007-09-11 08:58:56 51°15.075 2°44.607 9.4 35 14.5 102370 93
2007-09-11 08:59:01 51°15.072 2°44.599 8.9 38 14.5 102370 93
2007-09-11 08:59:05 51°15.069 2°44.593 9.4 36 14.5 102370 92
2007-09-11 08:59:10 51°15.066 2°44.584 7.8 30 14.5 102370 92
2007-09-11 08:59:15 51°15.063 2°44.576 8.1 38 14.5 102360 93
2007-09-11 08:59:20 51°15.059 2°44.567 7.8 36 14.5 102360 93
2007-09-11 08:59:25 51°15.056 2°44.558 7.5 38 14.5 102370 92
2007-09-11 08:59:30 51°15.053 2°44.55 7.4 35 14.5 102370 92
2007-09-11 08:59:35 51°15.05 2°44.541 7.9 36 14.4 102370 92
2007-09-11 08:59:40 51°15.046 2°44.533 9.3 33 14.4 102370 92
2007-09-11 08:59:45 51°15.044 2°44.524 7.7 31 14.4 102370 92
2007-09-11 08:59:50 51°15.04 2°44.516 9.3 36 14.4 102370 92
2007-09-11 08:59:55 51°15.037 2°44.506 7.4 37 14.5 102360 92
2007-09-11 09:00:00 51°15.033 2°44.498 9 34 14.5 102360 92
2007-09-11 09:00:05 51°15.031 2°44.488 8.1 34 14.4 102370 92
2007-09-11 09:00:10 51°15.027 2°44.479 8.6 37 14.4 102370 92
2007-09-11 09:00:15 51°15.024 2°44.469 8.2 34 14.4 102370 92
2007-09-11 09:00:20 51°15.02 2°44.46 8.3 36 14.4 102370 92
2007-09-11 09:00:25 51°15.017 2°44.45 7.9 37 14.4 102360 91
2007-09-11 09:00:31 51°15.012 2°44.439 7.2 35 14.4 102360 91
2007-09-11 09:00:35 51°15.009 2°44.431 7.2 33 14.3 102370 91
2007-09-11 09:00:40 51°15.006 2°44.421 8.5 36 14.3 102370 91
2007-09-11 09:00:45 51°15.002 2°44.413 7.5 36 14.3 102370 92
2007-09-11 09:00:50 51°14.998 2°44.403 7.8 35 14.3 102370 92
2007-09-11 09:00:55 51°14.995 2°44.395 7.5 37 14.3 102370 91
2007-09-11 09:01:00 51°14.991 2°44.385 6.9 37 14.3 102370 91
2007-09-11 09:01:05 51°14.987 2°44.377 7.2 37 14.3 102360 92
2007-09-11 09:01:10 51°14.984 2°44.368 6.3 42 14.3 102360 92
2007-09-11 09:01:15 51°14.981 2°44.36 5.9 37 14.3 102370 92
2007-09-11 09:01:20 51°14.978 2°44.351 5.9 39 14.3 102370 92
2007-09-11 09:01:25 51°14.974 2°44.342 6 42 14.3 102370 92
2007-09-11 09:01:30 51°14.971 2°44.334 7.7 40 14.3 102370 92
2007-09-11 09:01:35 51°14.968 2°44.325 8.4 41 14.4 102370 92
2007-09-11 09:01:40 51°14.964 2°44.318 8.5 33 14.4 102370 92
2007-09-11 09:01:45 51°14.961 2°44.309 7 33 14.4 102370 92
2007-09-11 09:01:50 51°14.958 2°44.301 6.2 33 14.4 102370 92
2007-09-11 09:01:55 51°14.955 2°44.293 6.4 36 14.4 102370 92
2007-09-11 09:02:00 51°14.951 2°44.284 7.9 33 14.4 102370 92
2007-09-11 09:02:05 51°14.948 2°44.276 8 32 14.4 102360 93
2007-09-11 09:02:11 51°14.944 2°44.267 8.5 34 14.4 102360 93
2007-09-11 09:02:15 51°14.942 2°44.26 8.1 33 14.5 102360 93
2007-09-11 09:02:20 51°14.94 2°44.252 8.2 33 14.5 102360 93
2007-09-11 09:02:25 51°14.937 2°44.245 8.4 29 14.5 102370 93
2007-09-11 09:02:30 51°14.934 2°44.237 8.9 31 14.5 102370 93
2007-09-11 09:02:36 51°14.931 2°44.229 8.6 31 14.5 102370 92
2007-09-11 09:02:40 51°14.93 2°44.223 8.2 32 14.5 102370 92
2007-09-11 09:02:45 51°14.927 2°44.216 7.9 34 14.4 102370 92
2007-09-11 09:02:51 51°14.925 2°44.208 8.4 32 14.4 102370 92
2007-09-11 09:02:55 51°14.922 2°44.203 8.2 32 14.4 102360 92
2007-09-11 09:03:00 51°14.921 2°44.197 8.3 30 14.4 102360 92
2007-09-11 09:03:05 51°14.919 2°44.191 8 28 14.4 102370 91
2007-09-11 09:03:10 51°14.917 2°44.184 7.9 29 14.4 102370 91
2007-09-11 09:03:16 51°14.914 2°44.177 8.6 31 14.4 102360 91
2007-09-11 09:03:20 51°14.912 2°44.172 9 29 14.4 102360 91
2007-09-11 09:03:25 51°14.91 2°44.166 8.7 26 14.3 102370 91
2007-09-11 09:03:30 51°14.909 2°44.16 8.4 28 14.3 102370 91
2007-09-11 09:03:35 51°14.906 2°44.153 8.4 22 14.4 102370 91
2007-09-11 09:03:40 51°14.905 2°44.147 7.9 26 14.4 102370 91
2007-09-11 09:03:45 51°14.903 2°44.141 8.4 28 14.4 102360 92
2007-09-11 09:03:50 51°14.901 2°44.134 9.9 25 14.4 102360 92
2007-09-11 09:03:55 51°14.9 2°44.128 8.6 27 14.4 102370 92
2007-09-11 09:04:00 51°14.898 2°44.122 8.8 27 14.4 102370 92
2007-09-11 09:04:05 51°14.896 2°44.115 9.3 25 14.4 102370 92
2007-09-11 09:04:10 51°14.895 2°44.109 8.2 27 14.4 102370 92
2007-09-11 09:04:15 51°14.893 2°44.102 8.3 27 14.4 102380 92
2007-09-11 09:04:20 51°14.892 2°44.096 8.2 30 14.4 102380 92
2007-09-11 09:04:25 51°14.891 2°44.089 8.5 26 14.4 102360 91
2007-09-11 09:04:30 51°14.89 2°44.084 7.8 26 14.4 102360 91
2007-09-11 09:04:35 51°14.888 2°44.078 7.9 27 14.4 102370 91
2007-09-11 09:04:40 51°14.886 2°44.072 8.4 25 14.4 102370 91
2007-09-11 09:04:45 51°14.885 2°44.065 8.3 24 14.4 102370 91
2007-09-11 09:04:50 51°14.884 2°44.059 9.3 29 14.4 102370 91
2007-09-11 09:04:55 51°14.883 2°44.053 9.8 26 14.5 102370 92
2007-09-11 09:05:00 51°14.882 2°44.047 7.9 24 14.5 102370 92
2007-09-11 09:05:05 51°14.88 2°44.041 9.2 24 14.4 102360 91
2007-09-11 09:05:10 51°14.879 2°44.036 7.9 21 14.4 102360 91
2007-09-11 09:05:15 51°14.877 2°44.03 7.2 21 14.4 102360 91
2007-09-11 09:05:20 51°14.876 2°44.023 7.8 20 14.4 102360 91
2007-09-11 09:05:25 51°14.875 2°44.018 8.4 16 14.4 102370 91
2007-09-11 09:05:31 51°14.873 2°44.011 10.2 17 14.4 102370 91
2007-09-11 09:05:36 51°14.872 2°44.006 9.2 17 14.5 102370 91
2007-09-11 09:05:40 51°14.871 2°44.002 9 18 14.5 102370 91
2007-09-11 09:05:45 51°14.87 2°43.997 8.7 17 14.5 102350 92
2007-09-11 09:05:50 51°14.869 2°43.992 9.3 18 14.5 102350 92
2007-09-11 09:05:56 51°14.867 2°43.987 8.6 18 14.5 102360 92
2007-09-11 09:06:00 51°14.866 2°43.983 9.2 20 14.5 102360 92
2007-09-11 09:06:05 51°14.865 2°43.979 8.3 20 14.5 102360 92
2007-09-11 09:06:10 51°14.863 2°43.974 8.1 18 14.5 102360 92
2007-09-11 09:06:15 51°14.861 2°43.97 7.8 17 14.5 102360 91
2007-09-11 09:06:21 51°14.859 2°43.966 7.2 17 14.5 102360 91
2007-09-11 09:06:25 51°14.858 2°43.962 8.6 15 14.5 102360 91
2007-09-11 09:06:30 51°14.856 2°43.959 8.5 23 14.5 102360 91
2007-09-11 09:06:35 51°14.855 2°43.955 7.6 19 14.5 102370 91
2007-09-11 09:06:40 51°14.853 2°43.951 8.2 22 14.5 102370 91
2007-09-11 09:06:45 51°14.851 2°43.947 8.6 18 14.6 102360 91
2007-09-11 09:06:50 51°14.85 2°43.944 8.4 17 14.6 102360 91
2007-09-11 09:06:55 51°14.848 2°43.941 7.9 19 14.5 102360 91
2007-09-11 09:07:00 51°14.846 2°43.937 8.2 20 14.5 102360 91
2007-09-11 09:07:05 51°14.844 2°43.933 7.9 24 14.5 102380 91
2007-09-11 09:07:10 51°14.842 2°43.931 7.5 23 14.5 102380 91
2007-09-11 09:07:15 51°14.84 2°43.927 8.8 22 14.5 102370 90
2007-09-11 09:07:20 51°14.839 2°43.924 7.2 26 14.5 102370 90
2007-09-11 09:07:25 51°14.837 2°43.921 7.8 23 14.5 102360 90
2007-09-11 09:07:30 51°14.835 2°43.918 7.8 21 14.5 102360 90
2007-09-11 09:07:35 51°14.833 2°43.914 7.4 20 14.5 102370 90
2007-09-11 09:07:40 51°14.832 2°43.911 6.8 23 14.5 102370 90
2007-09-11 09:07:45 51°14.83 2°43.908 8.1 24 14.5 102360 90
2007-09-11 09:07:50 51°14.828 2°43.906 7.9 26 14.5 102360 90
2007-09-11 09:07:55 51°14.826 2°43.902 6.9 28 14.5 102370 90
2007-09-11 09:08:00 51°14.824 2°43.899 8.2 16 14.5 102370 90
2007-09-11 09:08:05 51°14.823 2°43.896 8 23 14.5 102370 90
2007-09-11 09:08:10 51°14.82 2°43.893 9.3 24 14.5 102370 90
2007-09-11 09:08:15 51°14.819 2°43.89 9.5 23 14.5 102370 90
2007-09-11 09:08:20 51°14.817 2°43.887 8.9 20 14.5 102370 90
2007-09-11 09:08:25 51°14.815 2°43.885 8.4 21 14.5 102370 90
2007-09-11 09:08:30 51°14.812 2°43.881 9.4 21 14.5 102370 90
2007-09-11 09:08:35 51°14.811 2°43.879 8.4 19 14.5 102370 90
2007-09-11 09:08:40 51°14.809 2°43.877 7.9 18 14.5 102370 90
2007-09-11 09:08:45 51°14.807 2°43.874 8.3 21 14.6 102370 90
2007-09-11 09:08:50 51°14.805 2°43.871 8.3 20 14.6 102370 90
2007-09-11 09:08:55 51°14.803 2°43.869 8.7 22 14.6 102360 90
2007-09-11 09:09:00 51°14.8 2°43.866 9.5 21 14.6 102360 90
2007-09-11 09:09:05 51°14.799 2°43.863 8.4 24 14.6 102360 90
2007-09-11 09:09:10 51°14.796 2°43.861 9.8 24 14.6 102360 90
2007-09-11 09:09:15 51°14.795 2°43.859 8.3 27 14.6 102360 90
2007-09-11 09:09:20 51°14.792 2°43.856 8.5 26 14.6 102360 90
2007-09-11 09:09:25 51°14.791 2°43.854 9.4 29 14.6 102360 90
2007-09-11 09:09:31 51°14.788 2°43.851 8.4 27 14.6 102360 90
2007-09-11 09:09:36 51°14.786 2°43.848 7.7 29 14.6 102360 89
2007-09-11 09:09:40 51°14.785 2°43.846 7.7 33 14.6 102360 89
2007-09-11 09:09:45 51°14.782 2°43.844 7.6 22 14.6 102360 89
2007-09-11 09:09:50 51°14.78 2°43.842 6.8 29 14.6 102360 89
2007-09-11 09:09:56 51°14.777 2°43.839 9.1 26 14.5 102360 89
2007-09-11 09:10:00 51°14.775 2°43.837 8.7 26 14.5 102360 89
2007-09-11 09:10:05 51°14.773 2°43.835 8.2 31 14.5 102380 89
2007-09-11 09:10:10 51°14.771 2°43.833 8.9 29 14.5 102380 89
2007-09-11 09:10:15 51°14.769 2°43.831 9.4 29 14.6 102370 89
2007-09-11 09:10:20 51°14.767 2°43.83 8.1 28 14.6 102370 89
2007-09-11 09:10:25 51°14.765 2°43.828 9.1 29 14.6 102330 90
2007-09-11 09:10:30 51°14.763 2°43.825 8.5 29 14.6 102330 90
2007-09-11 09:10:35 51°14.76 2°43.824 10.1 29 14.6 102350 90
2007-09-11 09:10:40 51°14.759 2°43.822 8.1 26 14.6 102350 90
2007-09-11 09:10:45 51°14.756 2°43.82 9.5 32 14.6 102360 90
2007-09-11 09:10:50 51°14.754 2°43.818 9.6 32 14.6 102360 90
2007-09-11 09:10:55 51°14.751 2°43.816 10.3 31 14.6 102360 89
2007-09-11 09:11:00 51°14.75 2°43.814 9 34 14.6 102360 89
2007-09-11 09:11:05 51°14.747 2°43.812 8.4 36 14.6 102350 89
2007-09-11 09:11:10 51°14.745 2°43.811 8.8 31 14.6 102350 89
2007-09-11 09:11:15 51°14.744 2°43.809 8.4 33 14.6 102350 89
2007-09-11 09:11:20 51°14.741 2°43.807 9.9 30 14.6 102350 89
2007-09-11 09:11:25 51°14.739 2°43.805 9 30 14.6 102350 88
2007-09-11 09:11:30 51°14.737 2°43.803 10.6 33 14.6 102350 88
2007-09-11 09:11:35 51°14.735 2°43.801 10.7 30 14.6 102350 88
2007-09-11 09:11:40 51°14.733 2°43.799 8.9 35 14.6 102350 88
2007-09-11 09:11:45 51°14.73 2°43.797 11.2 33 14.6 102350 88
2007-09-11 09:11:50 51°14.729 2°43.796 9 34 14.6 102350 88
2007-09-11 09:11:55 51°14.727 2°43.794 8.9 32 14.6 102350 88
2007-09-11 09:12:00 51°14.724 2°43.792 9.6 31 14.6 102350 88
2007-09-11 09:12:05 51°14.723 2°43.791 9.1 30 14.6 102350 88
2007-09-11 09:12:10 51°14.721 2°43.789 8.2 32 14.6 102350 88
2007-09-11 09:12:15 51°14.718 2°43.787 8.3 31 14.6 102340 88
2007-09-11 09:12:20 51°14.717 2°43.786 8.8 26 14.6 102340 88
2007-09-11 09:12:25 51°14.713 2°43.784 9.4 28 14.6 102350 88
2007-09-11 09:12:30 51°14.712 2°43.782 8.9 29 14.6 102350 88
2007-09-11 09:12:36 51°14.709 2°43.779 8.3 31 14.6 102340 88
2007-09-11 09:12:40 51°14.707 2°43.777 8.8 27 14.6 102340 88
2007-09-11 09:12:45 51°14.705 2°43.774 9.1 30 14.6 102370 89
2007-09-11 09:12:50 51°14.703 2°43.77 8.4 28 14.6 102370 89
2007-09-11 09:12:56 51°14.701 2°43.765 8.8 30 14.6 102350 88
2007-09-11 09:13:00 51°14.699 2°43.761 8.6 28 14.6 102350 88
2007-09-11 09:13:05 51°14.697 2°43.757 8.8 23 14.6 102350 88
2007-09-11 09:13:10 51°14.695 2°43.751 7.7 21 14.6 102350 88
2007-09-11 09:13:15 51°14.693 2°43.743 7.1 22 14.7 102350 88
2007-09-11 09:13:20 51°14.692 2°43.734 8.9 16 14.7 102350 88
2007-09-11 09:13:25 51°14.692 2°43.725 7.1 17 14.7 102360 88
2007-09-11 09:13:30 51°14.691 2°43.713 9.6 15 14.7 102360 88
2007-09-11 09:13:35 51°14.692 2°43.702 9.3 14 14.7 102360 88
2007-09-11 09:13:40 51°14.693 2°43.689 7.9 5 14.7 102360 88
2007-09-11 09:13:45 51°14.695 2°43.675 8.2 1 14.7 102360 88
2007-09-11 09:13:50 51°14.698 2°43.662 11 4 14.7 102360 88
2007-09-11 09:13:55 51°14.702 2°43.648 10.5 2 14.7 102350 88
2007-09-11 09:14:00 51°14.706 2°43.634 10.4 359 14.7 102350 88
2007-09-11 09:14:05 51°14.711 2°43.619 11.4 357 14.7 102360 88
2007-09-11 09:14:11 51°14.717 2°43.6 10 356 14.7 102360 88
2007-09-11 09:14:15 51°14.721 2°43.587 11.4 355 14.8 102360 89
2007-09-11 09:14:20 51°14.727 2°43.571 11.4 354 14.8 102360 89
2007-09-11 09:14:25 51°14.733 2°43.556 11.2 357 14.7 102360 87
2007-09-11 09:14:31 51°14.741 2°43.538 12.7 354 14.7 102360 87
2007-09-11 09:14:36 51°14.748 2°43.521 11 354 14.7 102360 87
2007-09-11 09:14:41 51°14.754 2°43.505 12.1 356 14.7 102360 87
2007-09-11 09:14:46 51°14.762 2°43.489 13.2 356 14.7 102320 87
2007-09-11 09:14:51 51°14.769 2°43.473 12.5 356 14.7 102320 87
2007-09-11 09:14:56 51°14.776 2°43.455 12.3 358 14.7 102310 88
2007-09-11 09:15:01 51°14.784 2°43.438 12.8 356 14.7 102310 88
2007-09-11 09:15:05 51°14.79 2°43.425 11 358 14.7 102320 87
2007-09-11 09:15:11 51°14.8 2°43.403 9.6 356 14.7 102320 87
2007-09-11 09:15:16 51°14.808 2°43.386 13.1 355 14.7 102310 87
2007-09-11 09:15:21 51°14.815 2°43.368 11.3 354 14.7 102310 87
2007-09-11 09:15:25 51°14.822 2°43.354 11.8 278 14.7 102320 88
2007-09-11 09:15:30 51°14.83 2°43.335 14.2 350 14.7 102320 88
2007-09-11 09:15:35 51°14.838 2°43.317 13.3 350 14.8 102320 88
2007-09-11 09:15:40 51°14.846 2°43.297 12.7 350 14.8 102320 88
2007-09-11 09:15:45 51°14.854 2°43.278 14.2 278 14.8 102330 88
2007-09-11 09:15:50 51°14.862 2°43.259 14.3 351 14.8 102330 88
2007-09-11 09:15:55 51°14.87 2°43.24 14.2 351 14.8 102320 88
2007-09-11 09:16:00 51°14.878 2°43.221 13.4 351 14.8 102320 88
2007-09-11 09:16:05 51°14.887 2°43.202 13.1 352 14.7 102330 87
2007-09-11 09:16:10 51°14.895 2°43.183 13.1 351 14.7 102330 87
2007-09-11 09:16:15 51°14.903 2°43.163 14.2 354 14.7 102320 86
2007-09-11 09:16:20 51°14.911 2°43.144 14.5 352 14.7 102320 86
2007-09-11 09:16:25 51°14.918 2°43.124 14.3 353 14.6 102310 86
2007-09-11 09:16:30 51°14.926 2°43.104 13.6 351 14.6 102310 86
2007-09-11 09:16:35 51°14.933 2°43.083 14 353 14.7 102310 87
2007-09-11 09:16:40 51°14.942 2°43.065 13.1 351 14.7 102310 87
2007-09-11 09:16:45 51°14.949 2°43.045 13.3 353 14.6 102310 87
2007-09-11 09:16:51 51°14.958 2°43.023 14 355 14.6 102310 87
2007-09-11 09:16:55 51°14.964 2°43.008 14.4 355 14.6 102300 87
2007-09-11 09:17:00 51°14.972 2°42.989 13.2 353 14.6 102300 87
2007-09-11 09:17:05 51°14.979 2°42.969 13.6 356 14.6 102310 87
2007-09-11 09:17:10 51°14.987 2°42.951 13.1 353 14.6 102310 87
2007-09-11 09:17:16 51°14.996 2°42.928 13.4 354 14.6 102310 87
2007-09-11 09:17:20 51°15.003 2°42.914 12.9 352 14.6 102310 87
2007-09-11 09:17:25 51°15.009 2°42.895 14.1 350 14.6 102310 87
2007-09-11 09:17:30 51°15.018 2°42.877 12 348 14.6 102310 87
2007-09-11 09:17:35 51°15.025 2°42.859 13.7 351 14.6 102310 87
2007-09-11 09:17:40 51°15.033 2°42.84 12.9 348 14.6 102310 87
2007-09-11 09:17:45 51°15.041 2°42.822 14 351 14.6 102310 88
2007-09-11 09:17:50 51°15.048 2°42.804 13.5 348 14.6 102310 88
2007-09-11 09:17:55 51°15.056 2°42.785 13.9 350 14.6 102310 88
2007-09-11 09:18:00 51°15.063 2°42.765 14.8 352 14.6 102310 88
2007-09-11 09:18:05 51°15.071 2°42.747 12.8 352 14.6 102320 88
2007-09-11 09:18:10 51°15.079 2°42.728 16.1 349 14.6 102320 88
2007-09-11 09:18:15 51°15.086 2°42.709 12.9 279 14.6 102310 88
2007-09-11 09:18:20 51°15.093 2°42.69 14.1 352 14.6 102310 88
2007-09-11 09:18:25 51°15.101 2°42.672 14.1 349 14.5 102310 88
2007-09-11 09:18:31 51°15.11 2°42.649 14.9 352 14.5 102310 88
2007-09-11 09:18:36 51°15.118 2°42.631 14.5 350 14.6 102310 89
2007-09-11 09:18:40 51°15.124 2°42.615 16.2 351 14.6 102310 89
2007-09-11 09:18:45 51°15.133 2°42.597 13.4 352 14.6 102320 89
2007-09-11 09:18:51 51°15.141 2°42.574 14.2 352 14.6 102320 89
2007-09-11 09:18:56 51°15.15 2°42.556 14.4 349 14.6 102320 90
2007-09-11 09:19:00 51°15.156 2°42.54 15.7 350 14.6 102320 90
2007-09-11 09:19:05 51°15.164 2°42.522 13.4 280 14.6 102310 90
2007-09-11 09:19:11 51°15.173 2°42.498 14.9 350 14.6 102310 90
2007-09-11 09:19:16 51°15.181 2°42.481 14.2 348 14.6 102310 90
2007-09-11 09:19:21 51°15.189 2°42.462 14.3 350 14.6 102310 90
2007-09-11 09:19:25 51°15.195 2°42.447 16.3 352 14.6 102310 90
2007-09-11 09:19:30 51°15.203 2°42.428 14.9 349 14.6 102310 90
2007-09-11 09:19:36 51°15.211 2°42.406 15.1 348 14.6 102320 90
2007-09-11 09:19:40 51°15.217 2°42.391 13.5 352 14.6 102320 90
2007-09-11 09:19:45 51°15.225 2°42.373 15.4 353 14.6 102320 90
2007-09-11 09:19:50 51°15.233 2°42.355 14.6 352 14.6 102320 90
2007-09-11 09:19:55 51°15.241 2°42.336 14.5 351 14.6 102320 90
2007-09-11 09:20:01 51°15.251 2°42.314 14.6 347 14.6 102320 90
2007-09-11 09:20:05 51°15.257 2°42.298 15.9 352 14.6 102310 91
2007-09-11 09:20:10 51°15.266 2°42.281 14.8 349 14.6 102310 91
2007-09-11 09:20:15 51°15.273 2°42.26 15.8 354 14.6 102300 91
2007-09-11 09:20:20 51°15.281 2°42.243 17.2 350 14.6 102300 91
2007-09-11 09:20:26 51°15.288 2°42.219 15.2 353 14.6 102320 91
2007-09-11 09:20:31 51°15.296 2°42.202 14.7 351 14.6 102320 91
2007-09-11 09:20:36 51°15.301 2°42.181 14.3 350 14.6 102310 90
2007-09-11 09:20:41 51°15.309 2°42.165 14.6 351 14.6 102310 90
2007-09-11 09:20:46 51°15.316 2°42.146 15.9 351 14.5 102300 91
2007-09-11 09:20:51 51°15.325 2°42.13 13.8 350 14.5 102300 91
2007-09-11 09:20:56 51°15.332 2°42.112 14.8 279 14.5 102300 91
2007-09-11 09:21:00 51°15.338 2°42.098 15.7 349 14.5 102300 91
2007-09-11 09:21:05 51°15.345 2°42.08 14.7 351 14.5 102320 91
2007-09-11 09:21:11 51°15.355 2°42.059 16 348 14.5 102320 91
2007-09-11 09:21:15 51°15.361 2°42.045 16.9 350 14.5 102310 91
2007-09-11 09:21:20 51°15.369 2°42.027 14.6 349 14.5 102310 91
2007-09-11 09:21:25 51°15.377 2°42.009 13.8 350 14.5 102310 91
2007-09-11 09:21:31 51°15.387 2°41.987 15.4 350 14.5 102310 91
2007-09-11 09:21:36 51°15.396 2°41.971 15.5 351 14.5 102310 91
2007-09-11 09:21:41 51°15.403 2°41.953 13.5 354 14.5 102310 91
2007-09-11 09:21:46 51°15.411 2°41.936 14.2 351 14.5 102310 91
2007-09-11 09:21:52 51°15.42 2°41.918 15.2 349 14.5 102310 91
2007-09-11 09:21:57 51°15.428 2°41.902 14.1 355 14.4 102320 91
2007-09-11 09:22:01 51°15.434 2°41.889 14.3 350 14.4 102320 91
2007-09-11 09:22:06 51°15.443 2°41.872 14.9 349 14.4 102320 91
2007-09-11 09:22:12 51°15.453 2°41.853 15 350 14.4 102320 91
2007-09-11 09:22:16 51°15.459 2°41.839 13.8 351 14.4 102320 91
2007-09-11 09:22:22 51°15.469 2°41.82 13.1 349 14.4 102320 91
2007-09-11 09:22:27 51°15.477 2°41.805 14.2 350 14.4 102310 91
2007-09-11 09:22:32 51°15.486 2°41.789 14.8 348 14.4 102310 91
2007-09-11 09:22:36 51°15.493 2°41.777 13.1 350 14.4 102310 90
2007-09-11 09:22:41 51°15.502 2°41.762 13.2 346 14.4 102310 90
2007-09-11 09:22:46 51°15.511 2°41.746 13.3 280 14.4 102320 91
2007-09-11 09:22:51 51°15.52 2°41.729 14.3 351 14.4 102320 91
2007-09-11 09:22:56 51°15.529 2°41.714 14.1 278 14.3 102330 90
2007-09-11 09:23:01 51°15.538 2°41.697 13.7 351 14.3 102330 90
2007-09-11 09:23:06 51°15.547 2°41.682 14.3 353 14.3 102350 91
2007-09-11 09:23:11 51°15.555 2°41.666 16.5 352 14.3 102350 91
2007-09-11 09:23:16 51°15.564 2°41.65 14 351 14.3 102350 90
2007-09-11 09:23:21 51°15.572 2°41.634 14.9 351 14.3 102350 90